Flag for U.S.A. Weather past 2 weeks in Howell, Michigan, U.S.A.

Now
78 °F

Scattered clouds.


Feels Like: 79 °F
Forecast: 54 / 81 °F
Wind: 7 mph from South

Location: Livingston County Airport

Current Time: May 28, 2015 at 3:16:51 PM

Latest Report: May 28, 2015 at 2:55 PM


Visibility: 10 mi

Pressure: 30.23 "Hg

Humidity: 42%

Dew point: 54 °F

Location of HowellLocation

Historic Weather in Howell — Graph

°F

Howell temperature yesterday

Maximum temperature yesterday: 79 °F (at 12:55 PM)
Minimum temperature yesterday: 62 °F (at 11:34 PM)
Average temperature yesterday: 69 °F

Past Weeks' High & Low Weather Summary

 TemperatureHumidityPressure
High84 °F (May 26, 3:55 PM)100% (May 16, 5:34 AM)30.46 "Hg (May 16, 5:34 AM)
Low37 °F (May 14, 6:55 AM)19% (May 23, 6:15 PM)29.85 "Hg (May 26, 4:55 PM)
Average62 °F65%30.11 "Hg
* Reported May 13 2:15 PM — May 28 2:15 PM, Howell, Weather by CustomWeather, © 2015

Note: Actual official high and low records may vary slightly from our data, if they occured in-between our weather recording intervals... More about our weather records

Advertising

Howell weather history for previous 24 hours

 ConditionsComfort  
Time TempWeatherWind HumidityBarometerVisibility
2:15 PM
Thu, May 28
78 °FSunny.No wind43%30.24 "Hg10 mi
1:55 PM78 °FSunny.5 mph45%30.24 "Hg10 mi
1:34 PM78 °FSunny.No wind44%30.25 "Hg10 mi
1:15 PM76 °FSunny.5 mph47%30.26 "Hg10 mi
12:55 PM76 °FSunny.6 mph49%30.27 "Hg10 mi
12:35 PM75 °FSunny.5 mph48%30.27 "Hg10 mi
12:15 PM75 °FSunny.7 mph48%30.27 "Hg10 mi
11:55 AM74 °FSunny.5 mph48%30.26 "Hg10 mi
11:35 AM74 °FSunny.3 mph47%30.26 "Hg10 mi
11:15 AM73 °FSunny.No wind48%30.25 "Hg10 mi
10:55 AM73 °FSunny.3 mph48%30.25 "Hg10 mi
10:35 AM72 °FSunny.3 mph53%30.25 "Hg10 mi
10:15 AM71 °FSunny.5 mph57%30.24 "Hg10 mi
9:54 AM69 °FSunny.No wind69%30.24 "Hg10 mi
9:35 AM67 °FSunny.No wind71%30.24 "Hg10 mi
9:15 AM66 °FSunny.No wind83%30.24 "Hg10 mi
8:54 AM63 °FSunny.No wind90%30.24 "Hg10 mi
8:35 AM61 °FSunny.No wind94%30.24 "Hg10 mi
8:15 AM60 °FSunny.No wind97%30.24 "Hg7 mi
7:54 AM58 °FSunny.No wind98%30.24 "Hg7 mi
7:35 AM56 °FFog.No wind99%30.23 "Hg5 mi
7:15 AM54 °FFog.No wind99%30.22 "Hg5 mi
6:54 AM53 °FFog.No wind98%30.22 "Hg1 mi
6:35 AM54 °FFog.No wind98%30.22 "Hg1 mi
6:15 AM53 °FFog.No wind98%30.21 "Hg2 mi
5:55 AM54 °FFog.No wind97%30.20 "Hg4 mi
5:35 AM54 °FFog.No wind98%30.19 "Hg2 mi
5:15 AM53 °FFog.No wind98%30.19 "Hg3 mi
4:55 AM54 °FFog.3 mph97%30.19 "Hg4 mi
4:35 AM54 °FFog.No wind98%30.17 "Hg5 mi
4:14 AM55 °FFog.No wind97%30.18 "Hg3 mi
3:15 AM54 °FClear.No wind96%30.16 "Hg7 mi
1:15 AM59 °FClear.5 mph89%30.12 "Hg10 mi
12:55 AM59 °FClear.5 mph87%30.11 "Hg10 mi
12:34 AM60 °FClear.5 mph87%30.10 "Hg10 mi
12:15 AM60 °FClear.3 mph87%30.10 "Hg10 mi
11:34 PM
Wed, May 27
62 °FClear.6 mph81%30.10 "Hg10 mi
11:15 PM63 °FClear.5 mph80%30.09 "Hg10 mi
10:55 PM64 °FClear.6 mph79%30.08 "Hg10 mi
10:34 PM65 °FPassing clouds.6 mph77%30.08 "Hg10 mi
10:15 PM65 °FMostly cloudy.7 mph75%30.07 "Hg10 mi
9:55 PM66 °FMore clouds than sun.6 mph74%30.06 "Hg10 mi
9:34 PM66 °FScattered clouds.8 mph72%30.04 "Hg10 mi
9:15 PM66 °FSunny.7 mph72%30.03 "Hg10 mi
8:55 PM66 °FSunny.6 mph72%30.02 "Hg10 mi
8:34 PM68 °FSunny.6 mph68%30.01 "Hg10 mi
8:15 PM70 °FSunny.7 mph64%30.00 "Hg10 mi
7:54 PM71 °FSunny.10 mph61%30.00 "Hg10 mi
7:35 PM71 °FSunny.13 mph57%29.99 "Hg10 mi
7:15 PM72 °FSunny.16 mph58%30.00 "Hg10 mi
6:54 PM72 °FScattered clouds.12 mph60%29.99 "Hg10 mi
6:35 PM73 °FSunny.15 mph58%29.98 "Hg10 mi
6:15 PM72 °FScattered clouds.13 mph62%29.98 "Hg10 mi
5:54 PM72 °FScattered clouds.10 mph69%29.97 "Hg10 mi
5:35 PM73 °FScattered clouds.10 mph69%29.98 "Hg10 mi
5:15 PM73 °FSunny.14 mph69%29.97 "Hg10 mi
4:54 PM72 °FScattered clouds.14 mph72%29.97 "Hg10 mi
4:35 PM72 °FBroken clouds.12 mph76%29.97 "Hg10 mi
4:15 PM71 °FScattered clouds.14 mph76%29.97 "Hg10 mi
3:54 PM71 °FScattered clouds.13 mph79%29.96 "Hg10 mi
3:35 PM69 °FScattered clouds.9 mph82%29.96 "Hg10 mi
3:15 PM67 °FLight rain. Cloudy.7 mph84%29.96 "Hg10 mi
Weather by CustomWeather, © 2015

See weather overviewHow to use our weather pages